Regional Weather Roundup
Issued by NWS

Home | Current Version | Previous Version | Graphics & Text | Print | Product List | Glossary On
Versions: 1 2 3 4 5 6 7 8 9 10 11 12 13 14 15 16 17 18 19 20 21 22 23 24 25 26 27 28 29 30 31 32 33 34 35 36 37 38 39 40 41 42 43 44 45 46 47 48 49 50
000
ASUS43 KMPX 011703
RWRMN
MINNESOTA STATE WEATHER ROUNDUP...
NATIONAL WEATHER SERVICE TWIN CITIES/CHANHASSEN MN
1100 AM CST TUE SEP 01 2015


NOTE: "FAIR" INDICATES FEW OR NO CLOUDS BELOW 12,000 FEET WITH NO
SIGNIFICANT WEATHER AND/OR OBSTRUCTIONS TO VISIBILITY. N/A MEANS
CURRENT SKY AND/OR WEATHER CONDITIONS ARE NOT AVAILABLE.

MNZ060>063-068>070-011800-
...TWIN CITIES METRO...

CITY           SKY/WX    TMP DP  RH WIND       PRES   REMARKS
TWIN CITIES    PTSUNNY   82  70  66 S6        29.91F
ST PAUL        MOSUNNY   80  71  74 E7        29.91F
CRYSTAL        MOSUNNY   83  69  62 VRB3      29.89F
BLAINE         PTSUNNY   84  70  61 CALM      29.91S
EDEN PRAIRIE   MOSUNNY   83  70  64 VRB3      29.90S
LAKEVILLE      SUNNY     81  72  74 SE6       29.91F
SOUTH ST PAUL  MOSUNNY   82  70  66 S5        29.91S
$$
MNZ001>005-007-008-013>017-022>024-027-028-011800-
...NORTHWEST MINNESOTA...

CITY           SKY/WX    TMP DP  RH WIND       PRES   REMARKS
BEMIDJI        SUNNY     77  53  42 SW6       29.92S
HALLOCK        SUNNY     79  54  41 S10       29.84F
ROSEAU         SUNNY     79  54  41 SW9       29.87F
WARROAD        SUNNY     75  57  53 S6        29.88S
THIEF RVR FALL SUNNY     79  54  41 S10       29.89S
CROOKSTON      SUNNY     79  57  47 SW9       29.88F
FOSSTON        SUNNY     81  48  32 CALM      29.91S
DETROIT LAKES  SUNNY     79  54  41 SE8       29.92F
PARK RAPIDS    SUNNY     80  56  43 VRB5      29.92F
$$
MNZ006-009>011-018-025>026-011800-
...NORTH CENTRAL MINNESOTA...

CITY           SKY/WX    TMP DP  RH WIND       PRES   REMARKS
BAUDETTE       SUNNY     79  54  41 S6        29.89R
FLAG ISLAND    SUNNY     75  48  38 SW9       29.86S
INTL FALLS     PTSUNNY   75  55  49 SW6       29.91R
WASKISH        SUNNY     73  63  68 W5        29.91S
BIG FORK       PTSUNNY   79  57  47 S3        29.92F
LONGVILLE      SUNNY     79  57  47 S3        29.92F
GRAND RAPIDS     N/A     75  55  50 S3        29.93F
COOK           CLOUDY    72  57  60 CALM      29.93S
$$
MNZ012-019>021-037-011800-
...NORTHEAST MINNESOTA...

CITY           SKY/WX    TMP DP  RH WIND       PRES   REMARKS
DULUTH         CLOUDY    77  68  73 VRB7      29.92S
ELY            CLOUDY    73  57  56 CALM      29.93S
HIBBING        CLOUDY    75  57  53 VRB3      29.93S
EVELETH        CLOUDY    73  55  53 CALM      29.95R
DULUTH HARBOR  CLOUDY    77  72  83 SW6       29.90S
TWO HARBORS    CLOUDY    81  70  69 SW5       29.89S
SILVER BAY     CLOUDY    77  68  73 S5        29.89S
GRAND MARAIS     N/A     59  56  89 SW5       29.87S
G MARAIS ARPRT CLOUDY    73  63  68 CALM      29.94S
$$
MNZ029>031-032-039>041-046>048-054>057-064-011800-
...WEST CENTRAL MINNESOTA...

CITY           SKY/WX    TMP DP  RH WIND       PRES   REMARKS
FERGUS FALLS   SUNNY     82  54  36 SE9       29.88S
WHEATON        SUNNY     79  64  61 SE12      29.90S
MORRIS         MOSUNNY   82  70  65 E8        29.89S
ALEXANDRIA     SUNNY     80  67  64 E9        29.92F
WADENA         SUNNY     81  55  41 SE5       29.91F
GLENWOOD       MOSUNNY   81  68  65 E7        29.91S
APPLETON       MOSUNNY   81  70  69 SE7       29.88S
BENSON         MOSUNNY   81  68  65 S6        29.89S
MADISON        PTSUNNY   81  70  69 SE7       29.88F
$$
MNZ033>034-036-042>043-049>051-058-059-011800-
...CENTRAL MINNESOTA...

CITY           SKY/WX    TMP DP  RH WIND       PRES   REMARKS
ST CLOUD       CLOUDY    77  70  79 E6        29.90F
AITKIN         MOSUNNY   81  66  61 SE3       29.91S
PINE RIVER     SUNNY     79  63  57 SE3       29.95F
BRAINERD       MOSUNNY   80  62  54 VRB3      29.92S
STAPLES        SUNNY     81  54  39 SE5       29.92S
LITTLE FALLS   MOSUNNY   79  64  61 E3        29.91F
LITCHFIELD     CLOUDY    77  72  83 SE6       29.92S
HUTCHINSON     SUNNY     78  72  81 SE3       29.92S
$$
MNZ037-044-045-052-053-011800-
...EAST CENTRAL MINNESOTA...

CITY           SKY/WX    TMP DP  RH WIND       PRES   REMARKS
PRINCETON      CLOUDY    77  70  78 E3        29.91F
MORA           CLOUDY    73  68  83 CALM      29.93F
CAMBRIDGE      CLOUDY    79  66  65 CALM      29.90F
RUSH CITY      CLOUDY    77  70  79 S3        29.92S
MOOSE LAKE     PTSUNNY   75  68  78 CALM      29.91S
CLOQUET        PTSUNNY   75  66  73 CALM      29.92F
$$
MNZ071>073-080-081-089-090-097-098-011800-
...SOUTHWEST MINNESOTA...

CITY           SKY/WX    TMP DP  RH WIND       PRES   REMARKS
MONTEVIDEO     PTSUNNY   82  72  69 S8        29.90F
MARSHALL       CLOUDY    75  66  73 CALM      29.91S
REDWOOD FALLS  CLOUDY    77  70  79 VRB3      29.90S
PIPESTONE      CLOUDY    77  70  78 W13       29.96R
WINDOM         CLOUDY    82  70  65 CALM      29.92S
WORTHINGTON    PTSUNNY   79  70  73 SE6       29.91F
JACKSON        PTSUNNY   81  70  69 S8        29.94R
$$
MNZ065>067-074>077-082>085-091>093-011800-
...SOUTH CENTRAL MINNESOTA...

CITY           SKY/WX    TMP DP  RH WIND       PRES   REMARKS
MANKATO        MOSUNNY   81  72  74 S9        29.91F
NEW ULM        PTSUNNY   79  72  78 SE7       29.90F
ST JAMES       PTSUNNY   81  73  78 SE5       29.92S
FAIRMONT       MOSUNNY   79  68  69 S7        29.92S
GLENCOE        PTSUNNY   80  73  76 SE5       29.91F
FARIBAULT      SUNNY     82  73  74 SE6       29.93F
OWATONNA       SUNNY     82  72  69 SE5       29.93F
$$
MNZ078>079-086>088-094>096-011800-
...SOUTHEAST MINNESOTA...

CITY           SKY/WX    TMP DP  RH WIND       PRES   REMARKS
ROCHESTER      MOSUNNY   81  73  76 S10       29.96F
RED WING       MOSUNNY   84  72  65 S5        29.91F
DODGE CENTER   SUNNY     81  73  78 S6        29.95F
WINONA         MOSUNNY   82  70  65 CALM      29.94S
AUSTIN         SUNNY     81  72  74 S6        29.95F
$$



USA.gov is the U.S. government's official web portal to all federal, state and local government web resources and services.